Weather in Cheriktey

Russia / Sakha (Yakutia) Republic     63°13′52″N   130°59′02″E
temp.,
°C
wind,
m/s
gust,
m/s
humid.,
%
clouds,
%
prec.,
mm/h
press.,
hPa
HPBL,
m
14 april, wed
wed1400:00−14e269592 0.0 101689
03:00−18e259994 0.0 101583
06:00−19e269776 0.0 101597
09:00−9e248318 0.0 1013321
12:00−5e237499 0.0 1012915
15:00−4ene2266100 0.1 10101114
18:00−5ene238112 0.0 100988
21:00−16ese11945 0.0 10109
15 april, thu
thu1500:00−20ne019914 0.0 10089
03:00−23ene0010047 0.0 10079
06:00−22n0010059 0.0 100714
09:00−9nw11855 0.0 1006236
12:00−4w128191 0.0 1005668
15:00−3w1274100 0.1 1005854
18:00−3ssw008675 0.1 100628
21:00−12se119696 0.1 10079
16 april, fri
fri1600:00−10e129799 0.2 100850
03:00−13e249799 0.4 100973
06:00−13e259795 0.1 1010117
09:00−7e2390100 0.2 1010361
12:00−3ese3490100 0.2 1008663
15:00−1s359086 1.3 1007638
18:00−1sse258695 0.6 1006221
21:00−4se31092100 0.6 1004229
17 april, sat
sat1700:00−4sse41388100 0.1 1001389
03:00−2sse51386100 0.2 997767
06:00−2sse61495100 1.6 9941046
09:00−1s61495100 4.4 991882
12:000s613100100 1.2 989826
15:00+1sse3692100 2.8 9921032
18:00−1w2698100 2.1 988467
21:00−1wsw6129495 4.5 991849
18 april, sun
sun1800:00−5sw4138765 0.3 995470
03:00−7sw41291100 0.4 998642
06:00−7sw41094100 0.6 1002850
09:00−6sw5890100 1.3 1006850
12:00−4wsw4786100 0.4 10081066
15:00−3wsw5783100 0.9 10111135
18:00−4sw3789100 0.4 1013805
21:00−9se1197100 0.1 101410